FW9412 Weather Reports


Display with metric or nautical units.
time (UTC)temp
F
wind
direction
speed
MPH
gust
MPH
rain 1hr
in
rain 24hr
in
rain mn
in
humidity
%
barometer
mb
20260904060521 68 179 1.0 1.0 0.00 0.00 0.00 97 1012.8
20260904060017 68 156 1.0 1.0 0.00 0.00 0.00 97 1013.0
20260904055512 68 174 0.0 0.0 0.00 0.00 0.00 97 1013.1
20260904055007 68 173 0.0 0.0 0.00 0.00 0.00 97 1013.0
20260904054503 68 172 0.0 0.0 0.00 0.00 0.00 97 1012.9
20260904053959 68 169 0.0 0.0 0.00 0.00 0.00 97 1013.2
20260904053458 68 163 0.0 0.0 0.00 0.00 0.00 97 1012.9
20260904052953 69 165 0.0 0.0 0.00 0.00 0.00 97 1013.1
20260904052450 69 171 0.0 0.0 0.00 0.00 0.00 96 1013.1
20260904051945 69 170 0.0 0.0 0.00 0.00 0.00 96 1013.1
20260904051442 69 172 0.0 1.0 0.00 0.00 0.00 96 1013.2
20260904050941 69 171 0.0 0.0 0.00 0.00 0.00 96 1013.5
20260904050437 69 171 0.0 0.0 0.00 0.00 0.00 95 1013.4
20260904045938 69 171 0.0 0.0 0.00 0.00 0.00 95 1013.2
20260904045432 69 171 0.0 0.0 0.00 0.00 0.00 94 1013.3
20260904044927 69 170 0.0 0.0 0.00 0.00 0.00 94 1013.2
20260904044423 69 170 0.0 0.0 0.00 0.00 0.00 94 1013.5
20260904043919 69 170 0.0 0.0 0.00 0.00 0.00 94 1013.1
20260904043416 69 169 0.0 0.0 0.00 0.00 0.00 94 1013.3
20260904042910 69 169 0.0 0.0 0.00 0.00 0.00 93 1013.1
20260904042407 69 169 0.0 0.0 0.00 0.00 0.00 93 1013.4
20260904041901 69 169 0.0 0.0 0.00 0.00 0.00 93 1013.2
20260904041358 69 168 0.0 0.0 0.00 0.00 0.00 93 1013.2
20260904040854 69 169 0.0 0.0 0.00 0.00 0.00 93 1013.1
20260904040348 69 164 0.0 0.0 0.00 0.00 0.00 94 1013.2
20260904035844 69 162 0.0 0.0 0.00 0.00 0.00 93 1013.2
20260904035340 69 162 0.0 0.0 0.00 0.00 0.00 93 1012.9
20260904034839 69 162 0.0 0.0 0.00 0.00 0.00 93 1013.2
20260904034335 69 162 0.0 0.0 0.00 0.00 0.00 93 1013.1
20260904033831 69 162 0.0 0.0 0.00 0.00 0.00 93 1013.2
20260904033327 70 162 0.0 0.0 0.00 0.00 0.00 93 1013.0
20260904032823 69 162 0.0 0.0 0.00 0.00 0.00 93 1013.1
20260904032323 69 162 0.0 0.0 0.00 0.00 0.00 93 1013.1
20260904031816 69 161 0.0 0.0 0.00 0.00 0.00 94 1013.0
20260904031312 70 161 0.0 0.0 0.00 0.00 0.00 94 1013.2
20260904030808 70 161 0.0 0.0 0.00 0.00 0.00 94 1013.2
20260904030303 70 161 0.0 0.0 0.00 0.00 0.00 94 1013.0
20260904025759 70 161 0.0 0.0 0.00 0.00 0.00 93 1013.3
20260904025255 71 161 0.0 0.0 0.00 0.00 0.00 93 1013.3
20260904024750 71 161 0.0 0.0 0.00 0.00 0.00 91 1013.2
20260904024245 71 161 0.0 0.0 0.00 0.00 0.00 91 1013.1
20260904023741 70 161 0.0 0.0 0.00 0.00 0.00 88 1013.3
20260904023237 70 161 0.0 0.0 0.00 0.00 0.00 88 1013.3
20260904022730 71 161 0.0 0.0 0.00 0.00 0.00 87 1013.5
20260904022228 71 161 0.0 0.0 0.00 0.00 0.00 86 1013.5
20260904021724 71 161 0.0 0.0 0.00 0.00 0.00 86 1013.3
20260904021224 71 161 0.0 0.0 0.00 0.00 0.00 86 1013.2
20260904020720 70 161 0.0 0.0 0.00 0.00 0.00 88 1013.4
20260904020219 70 161 0.0 0.0 0.00 0.00 0.00 88 1013.5
20260904015717 70 161 0.0 0.0 0.00 0.00 0.00 88 1013.3
20260904015212 71 161 0.0 0.0 0.00 0.00 0.00 89 1013.3
20260904014706 71 161 0.0 0.0 0.00 0.00 0.00 89 1013.3
20260904014201 71 161 0.0 0.0 0.00 0.00 0.00 89 1013.6
20260904013658 71 161 0.0 0.0 0.00 0.00 0.00 89 1013.5
20260904013153 71 161 0.0 0.0 0.00 0.00 0.00 89 1013.4
20260904012649 71 161 0.0 0.0 0.00 0.00 0.00 88 1013.4
20260904012148 71 161 0.0 0.0 0.00 0.00 0.00 89 1013.3
20260904011647 71 161 0.0 0.0 0.00 0.00 0.00 89 1013.2
20260904011143 71 161 0.0 0.0 0.00 0.00 0.00 90 1013.3
20260904010638 71 161 0.0 0.0 0.00 0.00 0.00 90 1013.2
20260904010135 71 161 0.0 0.0 0.00 0.00 0.00 90 1013.3
20260904005630 71 161 0.0 0.0 0.00 0.00 0.00 90 1013.3
20260904005125 71 161 0.0 0.0 0.00 0.00 0.00 90 1013.4
20260904004621 71 161 0.0 0.0 0.00 0.00 0.00 89 1013.5
20260904004120 71 161 0.0 0.0 0.00 0.00 0.00 89 1013.3
20260904003616 72 161 0.0 0.0 0.00 0.00 0.00 89 1013.4
20260904003112 72 161 0.0 0.0 0.00 0.00 0.00 88 1013.2
20260904002608 72 161 0.0 0.0 0.00 0.00 0.00 87 1013.4
20260904002102 72 161 0.0 0.0 0.00 0.00 0.00 87 1013.3
20260904001558 72 161 0.0 0.0 0.00 0.00 0.00 86 1013.1
20260904001056 72 161 0.0 0.0 0.00 0.00 0.00 86 1013.0
20260904000557 72 161 0.0 0.0 0.00 0.00 0.00 86 1013.2
20260904000053 73 161 0.0 0.0 0.00 0.00 0.00 85 1013.2
20260903235547 73 161 0.0 0.0 0.00 0.00 0.00 85 1013.1
20260903235043 73 161 0.0 0.0 0.00 0.00 0.00 84 1013.3
20260903234538 73 161 0.0 0.0 0.00 0.00 0.00 84 1013.1
20260903234034 74 161 0.0 0.0 0.00 0.00 0.00 83 1013.0
20260903233530 74 160 0.0 0.0 0.00 0.00 0.00 83 1013.0
20260903233025 74 171 0.0 0.0 0.00 0.00 0.00 83 1013.2
20260903232520 74 160 0.0 0.0 0.00 0.00 0.00 83 1013.0
20260903232015 74 160 0.0 0.0 0.00 0.00 0.00 83 1013.4
20260903231509 74 159 0.0 0.0 0.00 0.00 0.00 84 1013.1
20260903231004 74 163 0.0 0.0 0.00 0.00 0.00 85 1013.4
20260903230500 75 164 0.0 0.0 0.00 0.00 0.00 84 1013.0
20260903225956 75 171 0.0 0.0 0.00 0.00 0.00 84 1012.9
20260903225451 75 162 0.0 0.0 0.00 0.00 0.00 83 1012.9
20260903224947 75 153 0.0 0.0 0.00 0.00 0.00 83 1013.1
20260903224443 75 174 0.0 0.0 0.00 0.00 0.00 82 1012.8
20260903223939 75 174 0.0 0.0 0.00 0.00 0.00 81 1012.6
20260903223438 75 174 0.0 0.0 0.00 0.00 0.00 81 1012.7
20260903222937 75 174 0.0 0.0 0.00 0.00 0.00 81 1012.7
20260903222432 76 174 0.0 0.0 0.00 0.00 0.00 80 1012.6
20260903221931 76 174 0.0 0.0 0.00 0.00 0.00 79 1012.6
20260903221426 76 174 0.0 0.0 0.00 0.00 0.00 78 1012.7
20260903220923 76 174 0.0 0.0 0.00 0.00 0.00 79 1012.6
20260903220418 76 174 0.0 0.0 0.00 0.00 0.00 78 1012.6
20260903215915 76 174 0.0 0.0 0.00 0.00 0.00 78 1012.6
20260903215413 77 174 0.0 0.0 0.00 0.00 0.00 76 1012.7
20260903214910 77 175 0.0 0.0 0.00 0.00 0.00 78 1012.6
20260903214407 77 174 0.0 0.0 0.00 0.00 0.00 75 1012.6
20260903213906 77 175 0.0 0.0 0.00 0.00 0.00 79 1012.6
20260903213402 77 175 0.0 0.0 0.00 0.00 0.00 79 1012.7
20260903212857 77 174 0.0 0.0 0.00 0.00 0.00 79 1012.6
20260903212354 77 174 0.0 0.0 0.00 0.00 0.00 77 1012.4
20260903211853 78 175 0.0 0.0 0.00 0.00 0.00 75 1012.6
20260903211349 78 175 0.0 0.0 0.00 0.00 0.00 75 1012.5
20260903210845 78 175 0.0 0.0 0.00 0.00 0.00 74 1012.7
20260903210345 78 175 0.0 0.0 0.00 0.00 0.00 75 1012.7
20260903205845 78 175 0.0 0.0 0.00 0.00 0.00 73 1012.9
20260903205344 78 175 0.0 0.0 0.00 0.00 0.00 72 1012.8
20260903204839 78 175 0.0 0.0 0.00 0.00 0.00 73 1013.1
20260903204335 78 175 0.0 0.0 0.00 0.00 0.00 73 1012.7
20260903203831 78 175 0.0 0.0 0.00 0.00 0.00 74 1013.2
20260903203326 78 174 0.0 0.0 0.00 0.00 0.00 74 1013.1
20260903202825 78 175 0.0 0.0 0.00 0.00 0.00 71 1013.0
20260903202322 78 175 0.0 0.0 0.00 0.00 0.00 74 1013.2
20260903201821 78 175 0.0 0.0 0.00 0.00 0.00 71 1012.9
20260903201317 78 178 0.0 0.0 0.00 0.00 0.00 71 1013.3
20260903200815 78 177 0.0 0.0 0.00 0.00 0.00 69 1012.9
20260903200311 79 177 0.0 0.0 0.00 0.00 0.00 71 1013.1
20260903195806 78 178 0.0 0.0 0.00 0.00 0.00 71 1013.2
20260903195306 78 184 1.0 1.0 0.00 0.00 0.00 71 1013.1
20260903194757 78 174 0.0 0.0 0.00 0.00 0.00 70 1013.1
20260903194253 78 174 0.0 0.0 0.00 0.00 0.00 70 1013.1
20260903193748 78 184 0.0 1.0 0.00 0.00 0.00 68 1013.0
20260903193244 78 181 1.0 1.0 0.00 0.00 0.00 69 1013.4
20260903192739 79 181 1.0 1.0 0.00 0.00 0.00 67 1013.3
20260903192235 80 185 1.0 1.0 0.00 0.00 0.00 67 1013.5
20260903191731 80 180 1.0 1.0 0.00 0.00 0.00 67 1013.5
20260903191227 79 195 1.0 1.0 0.00 0.00 0.00 66 1013.2
20260903190721 79 187 1.0 1.0 0.00 0.00 0.00 63 1013.4
20260903190220 79 180 1.0 1.0 0.00 0.00 0.00 65 1013.2
20260903185716 80 190 1.0 1.0 0.00 0.00 0.00 62 1013.6
20260903185210 79 173 0.0 0.0 0.00 0.00 0.00 63 1013.6
20260903184707 78 227 2.0 2.0 0.00 0.00 0.00 63 1013.6
20260903184203 79 178 0.0 0.0 0.00 0.00 0.00 64 1013.5
20260903183702 79 178 0.0 1.0 0.00 0.00 0.00 63 1013.7
20260903183157 78 170 0.0 0.0 0.00 0.00 0.00 69 1013.8
20260903182655 79 189 1.0 1.0 0.00 0.00 0.00 68 1013.9
20260903182151 78 176 0.0 1.0 0.00 0.00 0.00 69 1013.6
20260903181649 78 195 2.0 2.0 0.00 0.00 0.00 67 1013.2
20260903181144 78 170 0.0 1.0 0.00 0.00 0.00 71 1013.7
20260903180640 78 180 0.0 1.0 0.00 0.00 0.00 70 1013.7
20260903180134 78 184 0.0 1.0 0.00 0.00 0.00 68 1013.8
20260903175633 78 176 0.0 0.0 0.00 0.00 0.00 72 1013.7
20260903175133 78 193 1.0 1.0 0.00 0.00 0.00 70 1013.6
20260903174627 78 172 0.0 1.0 0.00 0.00 0.00 69 1013.7
20260903174122 78 216 2.0 2.0 0.00 0.00 0.00 68 1013.8
20260903173617 78 176 0.0 1.0 0.00 0.00 0.00 71 1013.7
20260903173114 78 203 1.0 1.0 0.00 0.00 0.00 70 1013.8
20260903172608 77 176 0.0 0.0 0.00 0.00 0.00 71 1013.7
20260903172103 77 175 0.0 1.0 0.00 0.00 0.00 72 1013.7
20260903171603 77 104 0.0 1.0 0.00 0.00 0.00 70 1013.9
20260903171059 77 191 1.0 1.0 0.00 0.00 0.00 75 1013.7
20260903170557 77 191 1.0 2.0 0.00 0.00 0.00 71 1013.7
20260903170054 76 89 1.0 1.0 0.00 0.00 0.00 77 1013.9
20260903165550 77 194 1.0 2.0 0.00 0.00 0.00 79 1013.8
20260903165046 77 184 1.0 1.0 0.00 0.00 0.00 79 1014.1
20260903164540 76 199 1.0 1.0 0.00 0.00 0.00 75 1013.9
20260903164036 76 170 0.0 0.0 0.00 0.00 0.00 82 1014.1
20260903163531 75 176 1.0 1.0 0.00 0.00 0.00 79 1014.1
20260903163027 75 205 2.0 2.0 0.00 0.00 0.00 79 1014.2
20260903162523 75 179 3.0 3.0 0.00 0.00 0.00 82 1014.4
20260903162019 75 194 1.0 1.0 0.00 0.00 0.00 82 1014.4
20260903161514 74 183 1.0 2.0 0.00 0.00 0.00 85 1014.4
20260903161010 74 166 0.0 0.0 0.00 0.00 0.00 84 1014.7
20260903160509 74 192 1.0 1.0 0.00 0.00 0.00 87 1014.4
20260903160003 74 169 0.0 0.0 0.00 0.00 0.00 87 1014.3
20260903155502 73 163 0.0 0.0 0.00 0.00 0.00 85 1014.5
20260903154958 73 189 1.0 1.0 0.00 0.00 0.00 89 1014.5
20260903154454 73 202 1.0 1.0 0.00 0.00 0.00 89 1014.6
20260903153950 73 179 1.0 1.0 0.00 0.00 0.00 89 1014.4
20260903153445 73 204 1.0 2.0 0.00 0.00 0.00 89 1014.7
20260903152941 73 247 2.0 2.0 0.00 0.00 0.00 92 1014.6
20260903152437 73 154 1.0 1.0 0.00 0.00 0.00 91 1014.4
20260903151933 73 172 0.0 1.0 0.00 0.00 0.00 93 1014.5
20260903151427 72 199 2.0 2.0 0.00 0.00 0.00 93 1014.6
20260903150922 72 177 0.0 1.0 0.00 0.00 0.00 94 1014.5
20260903150416 72 187 1.0 1.0 0.00 0.00 0.00 94 1014.4
20260903145911 71 180 1.0 1.0 0.00 0.00 0.00 95 1014.7
20260903145407 71 221 0.0 1.0 0.00 0.00 0.00 95 1014.8
20260903144906 70 202 1.0 1.0 0.00 0.00 0.00 96 1014.9
20260903144401 70 176 1.0 1.0 0.00 0.00 0.00 96 1014.7
20260903143856 70 179 1.0 1.0 0.00 0.00 0.00 97 1014.7
20260903143353 69 178 0.0 1.0 0.00 0.00 0.00 97 1014.7
20260903142848 69 173 1.0 1.0 0.00 0.00 0.00 97 1014.7
20260903142344 69 170 0.0 1.0 0.00 0.00 0.00 97 1014.5
20260903141840 69 189 1.0 1.0 0.00 0.00 0.00 97 1014.6
20260903141335 69 175 0.0 1.0 0.00 0.00 0.00 97 1014.5
20260903140830 69 181 1.0 1.0 0.00 0.00 0.00 97 1014.5
20260903140325 69 168 0.0 1.0 0.00 0.00 0.00 97 1014.4
20260903135821 69 179 1.0 1.0 0.00 0.00 0.00 97 1014.6
20260903135316 69 212 1.0 1.0 0.00 0.00 0.00 96 1014.5
20260903134815 69 175 0.0 1.0 0.00 0.00 0.00 96 1014.5
20260903134311 69 177 0.0 1.0 0.00 0.00 0.00 96 1014.3
20260903133808 69 181 1.0 1.0 0.00 0.00 0.00 96 1014.3
20260903133305 69 181 1.0 1.0 0.00 0.00 0.00 96 1014.4
20260903132804 69 177 1.0 1.0 0.00 0.00 0.00 96 1014.4
20260903132300 69 183 1.0 1.0 0.00 0.00 0.00 96 1014.5
20260903131755 69 190 1.0 1.0 0.00 0.00 0.00 96 1014.4
20260903131254 69 186 2.0 2.0 0.00 0.00 0.00 95 1014.3
20260903130749 69 178 1.0 2.0 0.00 0.00 0.00 95 1014.3
20260903130244 69 181 1.0 1.0 0.00 0.00 0.00 95 1014.4
20260903125742 69 172 1.0 1.0 0.00 0.00 0.00 95 1014.6
20260903125238 69 170 1.0 1.0 0.00 0.00 0.00 95 1014.4
20260903124737 69 165 0.0 0.0 0.00 0.00 0.00 95 1014.2
20260903124232 69 180 1.0 1.0 0.00 0.00 0.00 95 1014.2
20260903123731 69 183 1.0 1.0 0.00 0.00 0.00 95 1014.6
20260903123230 69 179 0.0 1.0 0.00 0.00 0.00 95 1014.5
20260903122729 69 176 1.0 1.0 0.00 0.00 0.00 95 1014.6
20260903122224 69 180 1.0 1.0 0.00 0.00 0.00 95 1014.4
20260903121722 69 168 0.0 0.0 0.00 0.00 0.00 95 1014.4
20260903121219 69 181 0.0 0.0 0.00 0.00 0.00 95 1014.3
20260903120718 69 172 0.0 0.0 0.00 0.00 0.00 95 1014.2
20260903120212 68 189 0.0 0.0 0.00 0.00 0.00 95 1014.3
20260903115711 68 176 0.0 0.0 0.00 0.00 0.00 95 1013.9
20260903115207 68 185 0.0 0.0 0.00 0.00 0.00 95 1014.2
20260903114701 68 182 0.0 0.0 0.00 0.00 0.00 95 1013.9
20260903114156 68 172 0.0 0.0 0.00 0.00 0.00 95 1014.2
20260903113651 68 170 0.0 0.0 0.00 0.00 0.00 95 1014.1
20260903113148 68 169 0.0 0.0 0.00 0.00 0.00 95 1014.2
20260903112644 68 164 0.0 0.0 0.00 0.00 0.00 95 1013.7
20260903112138 68 168 0.0 0.0 0.00 0.00 0.00 95 1013.8
20260903111637 68 163 0.0 0.0 0.00 0.00 0.00 95 1013.7
20260903111133 68 169 0.0 0.0 0.00 0.00 0.00 95 1013.7
20260903110629 68 163 0.0 0.0 0.00 0.00 0.00 95 1013.6
20260903110125 68 163 0.0 0.0 0.00 0.00 0.00 95 1013.6
20260903105619 68 158 0.0 0.0 0.00 0.00 0.00 95 1013.4
20260903105114 68 174 0.0 0.0 0.00 0.00 0.00 95 1013.4
20260903104613 68 159 0.0 0.0 0.00 0.00 0.00 95 1013.3
20260903104109 68 166 0.0 0.0 0.00 0.00 0.00 96 1013.2
20260903103605 68 176 1.0 1.0 0.00 0.00 0.00 96 1013.6
20260903103101 68 164 0.0 1.0 0.00 0.00 0.00 96 1013.5
20260903102556 68 178 0.0 0.0 0.00 0.00 0.00 96 1013.4
20260903102055 68 172 0.0 0.0 0.00 0.00 0.00 96 1013.3
20260903101549 68 168 1.0 2.0 0.00 0.00 0.00 96 1013.1
20260903101040 68 174 1.0 1.0 0.00 0.00 0.00 96 1013.3
20260903100539 68 166 0.0 1.0 0.00 0.00 0.00 96 1013.6
20260903100038 68 174 0.0 1.0 0.00 0.00 0.00 96 1013.2
20260903095537 68 178 1.0 1.0 0.00 0.00 0.00 95 1013.2
20260903095032 68 171 0.0 1.0 0.00 0.00 0.00 95 1013.2
20260903094532 68 182 1.0 1.0 0.00 0.00 0.00 95 1013.4
20260903094027 68 198 2.0 2.0 0.00 0.00 0.00 96 1013.5
20260903093527 68 181 2.0 2.0 0.00 0.00 0.00 96 1013.3
20260903093023 68 175 0.0 0.0 0.00 0.00 0.00 96 1013.2
20260903092517 67 186 0.0 0.0 0.00 0.00 0.00 96 1013.5
20260903092016 67 169 0.0 0.0 0.00 0.00 0.00 96 1013.5
20260903091515 67 172 0.0 1.0 0.00 0.00 0.00 96 1013.6
20260903091009 67 173 1.0 1.0 0.00 0.00 0.00 96 1013.4
20260903090506 67 167 0.0 1.0 0.00 0.00 0.00 96 1013.3
20260903090004 67 163 0.0 0.0 0.00 0.00 0.00 96 1013.3
20260903085502 68 166 0.0 0.0 0.00 0.00 0.00 96 1013.2
20260903084958 68 170 0.0 0.0 0.00 0.00 0.00 96 1013.3
20260903084456 68 159 0.0 0.0 0.00 0.00 0.00 96 1013.2
20260903083951 68 161 0.0 0.0 0.00 0.00 0.00 96 1013.2
20260903083447 68 168 0.0 0.0 0.00 0.00 0.00 96 1013.3
20260903082946 67 173 0.0 1.0 0.00 0.00 0.00 96 1013.3
20260903082441 67 160 0.0 0.0 0.00 0.00 0.00 96 1013.3
20260903081936 67 173 0.0 0.0 0.00 0.00 0.00 96 1013.4
20260903081432 67 156 0.0 0.0 0.00 0.00 0.00 96 1013.4
20260903080928 67 156 0.0 0.0 0.00 0.00 0.00 96 1013.4
20260903080424 67 181 1.0 2.0 0.00 0.00 0.00 96 1013.5
20260903075919 67 156 0.0 0.0 0.00 0.00 0.00 96 1013.3
20260903075415 67 161 0.0 1.0 0.00 0.00 0.00 96 1013.3
20260903074915 67 187 1.0 1.0 0.00 0.00 0.00 96 1013.3
20260903074409 67 177 1.0 1.0 0.00 0.00 0.00 96 1013.1
20260903073904 67 193 2.0 3.0 0.00 0.00 0.00 96 1013.5
20260903073359 67 170 1.0 1.0 0.00 0.00 0.00 96 1013.6
20260903072855 67 202 3.0 3.0 0.00 0.00 0.00 96 1013.5
20260903072351 67 176 1.0 1.0 0.00 0.00 0.00 96 1013.5
20260903071848 67 193 3.0 3.0 0.00 0.00 0.00 96 1013.5
20260903071343 67 189 1.0 1.0 0.00 0.00 0.00 96 1013.4
20260903070838 67 200 1.0 1.0 0.00 0.00 0.00 96 1013.6
20260903070334 67 186 1.0 2.0 0.00 0.00 0.00 96 1013.6
20260903065828 67 189 1.0 1.0 0.00 0.00 0.00 96 1013.8
20260903065327 67 175 1.0 1.0 0.00 0.00 0.00 96 1013.9
20260903064827 67 199 1.0 2.0 0.00 0.00 0.00 96 1013.7
20260903064323 67 187 1.0 1.0 0.00 0.00 0.00 96 1013.5
20260903063818 67 173 0.0 1.0 0.00 0.00 0.00 96 1013.6
20260903063313 67 173 1.0 1.0 0.00 0.00 0.00 96 1013.3
20260903062809 67 173 1.0 1.0 0.00 0.00 0.00 96 1013.5
20260903062308 67 164 0.0 0.0 0.00 0.00 0.00 96 1013.2
20260903061805 67 179 2.0 3.0 0.00 0.00 0.00 97 1013.3
20260903061303 67 177 0.0 1.0 0.00 0.00 0.00 97 1013.2